When you browse on this site, cookies collect data to enhance your experience and personalize the content and advertising you see.
Visit our Privacy Policy to learn more. By continuing to use the site, you agree to this use of cookies and data.
  • In Spain
  • List of Countries
  • For 7 days
  • Water Temperature
  • Weather Map
  • Weather Widgets
  • user-avatar
    Login

    Hourly Weather Hurghada

    Today, 27 February, Thursday

    Time Temperature Precipitation Wind Pressure Humidity
    00:00 +9°C° 0 mm 1 mps 685 mmHg 67%
    01:00 +8°C° 0 mm 1 mps 684 mmHg 63%
    02:00 +8°C° 0 mm 1 mps 684 mmHg 63%
    03:00 +8°C° 0 mm 1 mps 684 mmHg 62%
    04:00 +7°C° 0 mm 1 mps 684 mmHg 61%
    05:00 +7°C° 0 mm 1 mps 684 mmHg 60%
    06:00 +10°C° 0 mm 1 mps 685 mmHg 50%
    07:00 +12°C° 0 mm 1 mps 686 mmHg 40%
    08:00 +15°C° 0 mm 1 mps 686 mmHg 30%
    09:00 +18°C° 0 mm 1 mps 687 mmHg 27%
    10:00 +19°C° 0 mm 1 mps 687 mmHg 24%
    11:00 +20°C° 0 mm 2 mps 687 mmHg 22%
    12:00 +21°C° 0 mm 2 mps 687 mmHg 21%
    13:00 +21°C° 0 mm 3 mps 686 mmHg 21%
    14:00 +22°C° 0 mm 3 mps 686 mmHg 20%
    15:00 +21°C° 0 mm 3 mps 685 mmHg 23%
    16:00 +20°C° 0 mm 3 mps 685 mmHg 26%
    17:00 +19°C° 0 mm 2 mps 685 mmHg 29%
    18:00 +17°C° 0 mm 2 mps 684 mmHg 36%
    19:00 +14°C° 0 mm 2 mps 684 mmHg 43%
    20:00 +12°C° 0 mm 1 mps 683 mmHg 49%
    21:00 +12°C° 0 mm 1 mps 683 mmHg 48%
    22:00 +12°C° 0 mm 1 mps 683 mmHg 46%
    23:00 +12°C° 0 mm 2 mps 683 mmHg 44%

    Tomorrow, 28 February, Friday

    Time Temperature Precipitation Wind Pressure Humidity
    00:00 +11°C° 0 mm 1 mps 683 mmHg 41%
    01:00 +10°C° 0 mm 1 mps 682 mmHg 37%
    02:00 +10°C° 0 mm 1 mps 682 mmHg 33%
    03:00 +10°C° 0 mm 1 mps 682 mmHg 34%
    04:00 +10°C° 0 mm 1 mps 682 mmHg 34%
    05:00 +9°C° 0 mm 1 mps 682 mmHg 34%
    06:00 +12°C° 0 mm 1 mps 682 mmHg 29%
    07:00 +15°C° 0 mm 1 mps 683 mmHg 25%
    08:00 +18°C° 0 mm 1 mps 684 mmHg 20%
    09:00 +19°C° 0 mm 2 mps 685 mmHg 18%
    10:00 +21°C° 0 mm 2 mps 685 mmHg 16%
    11:00 +24°C° 0 mm 3 mps 685 mmHg 14%
    12:00 +25°C° 0 mm 3 mps 685 mmHg 13%
    13:00 +26°C° 0 mm 4 mps 684 mmHg 13%
    14:00 +26°C° 0 mm 5 mps 684 mmHg 12%
    15:00 +25°C° 0 mm 4 mps 683 mmHg 15%
    16:00 +23°C° 0 mm 4 mps 683 mmHg 17%
    17:00 +22°C° 0 mm 4 mps 683 mmHg 19%
    18:00 +19°C° 0 mm 4 mps 683 mmHg 23%
    19:00 +17°C° 0 mm 3 mps 682 mmHg 28%
    20:00 +14°C° 0 mm 2 mps 682 mmHg 32%
    21:00 +14°C° 0 mm 2 mps 682 mmHg 33%
    22:00 +14°C° 0 mm 2 mps 682 mmHg 33%
    23:00 +14°C° 0 mm 2 mps 682 mmHg 34%

    Day after tomorrow, 29 February, Saturday

    Time Temperature Precipitation Wind Pressure Humidity
    00:00 +13°C° 0 mm 2 mps 682 mmHg 34%
    01:00 +13°C° 0 mm 2 mps 682 mmHg 35%
    02:00 +12°C° 0 mm 2 mps 681 mmHg 36%
    03:00 +12°C° 0 mm 2 mps 681 mmHg 40%
    04:00 +10°C° 0 mm 2 mps 681 mmHg 44%
    05:00 +9°C° 0 mm 2 mps 681 mmHg 48%
    06:00 +12°C° 0 mm 2 mps 682 mmHg 44%
    07:00 +13°C° 0 mm 3 mps 683 mmHg 39%
    08:00 +16°C° 0 mm 3 mps 684 mmHg 34%
    09:00 +18°C° 0 mm 4 mps 684 mmHg 30%
    10:00 +19°C° 0 mm 5 mps 684 mmHg 25%
    11:00 +21°C° 0 mm 5 mps 685 mmHg 21%
    12:00 +21°C° 0 mm 6 mps 684 mmHg 19%
    13:00 +22°C° 0 mm 7 mps 684 mmHg 18%
    14:00 +22°C° 0 mm 7 mps 684 mmHg 16%
    15:00 +21°C° 0 mm 7 mps 684 mmHg 20%
    16:00 +20°C° 0 mm 7 mps 683 mmHg 23%
    17:00 +17°C° 0 mm 7 mps 683 mmHg 26%
    18:00 +15°C° 0 mm 6 mps 683 mmHg 32%
    19:00 +13°C° 0 mm 5 mps 683 mmHg 38%
    20:00 +10°C° 0 mm 4 mps 683 mmHg 44%
    21:00 +10°C° 0 mm 3 mps 683 mmHg 47%
    22:00 +9°C° 0 mm 3 mps 683 mmHg 49%
    23:00 +8°C° 0 mm 2 mps 683 mmHg 51%

    1 March, Sunday

    Time Temperature Precipitation Wind Pressure Humidity
    00:00 +8°C° 0 mm 2 mps 683 mmHg 54%
    01:00 +7°C° 0 mm 2 mps 682 mmHg 57%
    02:00 +7°C° 0 mm 2 mps 682 mmHg 60%
    03:00 +7°C° 0 mm 2 mps 682 mmHg 63%
    04:00 +6°C° 0 mm 2 mps 682 mmHg 66%
    05:00 +5°C° 0 mm 3 mps 682 mmHg 68%
    06:00 +7°C° 0 mm 3 mps 683 mmHg 66%
    07:00 +9°C° 0 mm 3 mps 683 mmHg 64%
    08:00 +10°C° 0 mm 4 mps 684 mmHg 62%
    09:00 +12°C° 0 mm 4 mps 685 mmHg 50%
    10:00 +15°C° 0 mm 4 mps 685 mmHg 38%
    11:00 +18°C° 0 mm 4 mps 686 mmHg 26%
    12:00 +19°C° 0 mm 4 mps 685 mmHg 24%
    13:00 +20°C° 0 mm 5 mps 685 mmHg 22%
    14:00 +21°C° 0 mm 6 mps 685 mmHg 20%
    15:00 +19°C° 0 mm 5 mps 685 mmHg 24%
    16:00 +17°C° 0 mm 5 mps 684 mmHg 28%
    17:00 +17°C° 0 mm 4 mps 684 mmHg 32%
    18:00 +13°C° 0 mm 4 mps 684 mmHg 39%
    19:00 +11°C° 0 mm 3 mps 683 mmHg 46%
    20:00 +8°C° 0 mm 2 mps 683 mmHg 53%
    21:00 +8°C° 0 mm 2 mps 683 mmHg 53%
    22:00 +8°C° 0 mm 2 mps 683 mmHg 53%
    23:00 +8°C° 0 mm 3 mps 683 mmHg 52%

    2 March, Monday

    Time Temperature Precipitation Wind Pressure Humidity
    00:00 +7°C° 0 mm 2 mps 683 mmHg 53%
    01:00 +7°C° 0 mm 2 mps 683 mmHg 53%
    02:00 +7°C° 0 mm 2 mps 682 mmHg 53%
    03:00 +6°C° 0 mm 2 mps 682 mmHg 54%
    04:00 +6°C° 0 mm 2 mps 682 mmHg 56%
    05:00 +5°C° 0 mm 2 mps 682 mmHg 57%
    06:00 +8°C° 0 mm 2 mps 683 mmHg 48%
    07:00 +10°C° 0 mm 2 mps 684 mmHg 39%
    08:00 +13°C° 0 mm 2 mps 685 mmHg 30%
    09:00 +15°C° 0 mm 2 mps 685 mmHg 24%
    10:00 +17°C° 0 mm 3 mps 685 mmHg 19%
    11:00 +19°C° 0 mm 3 mps 686 mmHg 14%
    12:00 +20°C° 0 mm 4 mps 685 mmHg 13%
    13:00 +21°C° 0 mm 4 mps 685 mmHg 13%
    14:00 +22°C° 0 mm 5 mps 685 mmHg 13%
    15:00 +20°C° 0 mm 5 mps 684 mmHg 15%
    16:00 +19°C° 0 mm 4 mps 684 mmHg 18%
    17:00 +18°C° 0 mm 4 mps 684 mmHg 20%
    18:00 +15°C° 0 mm 4 mps 684 mmHg 25%
    19:00 +12°C° 0 mm 3 mps 683 mmHg 29%
    20:00 +10°C° 0 mm 3 mps 683 mmHg 33%
    21:00 +10°C° 0 mm 2 mps 683 mmHg 32%
    22:00 +9°C° 0 mm 2 mps 683 mmHg 31%
    23:00 +9°C° 0 mm 2 mps 683 mmHg 29%

    3 March, Tuesday

    Time Temperature Precipitation Wind Pressure Humidity
    00:00 +8°C° 0 mm 2 mps 683 mmHg 32%
    01:00 +9°C° 0 mm 1 mps 682 mmHg 35%
    02:00 +8°C° 0 mm 1 mps 682 mmHg 38%
    03:00 +8°C° 0 mm 1 mps 682 mmHg 40%
    04:00 +8°C° 0 mm 1 mps 682 mmHg 42%
    05:00 +7°C° 0 mm 1 mps 681 mmHg 44%
    06:00 +10°C° 0 mm 1 mps 682 mmHg 36%
    07:00 +13°C° 0 mm 1 mps 683 mmHg 28%
    08:00 +16°C° 0 mm 1 mps 685 mmHg 21%
    09:00 +18°C° 0 mm 2 mps 685 mmHg 18%
    10:00 +20°C° 0 mm 2 mps 685 mmHg 15%
    11:00 +23°C° 0 mm 2 mps 686 mmHg 12%
    12:00 +24°C° 0 mm 3 mps 685 mmHg 13%
    13:00 +24°C° 0 mm 3 mps 685 mmHg 14%
    14:00 +25°C° 0 mm 4 mps 684 mmHg 14%
    15:00 +24°C° 0 mm 3 mps 684 mmHg 17%
    16:00 +22°C° 0 mm 3 mps 684 mmHg 19%
    17:00 +21°C° 0 mm 2 mps 684 mmHg 22%
    18:00 +18°C° 0 mm 2 mps 683 mmHg 29%
    19:00 +15°C° 0 mm 1 mps 683 mmHg 36%
    20:00 +12°C° 0 mm 1 mps 682 mmHg 43%
    21:00 +12°C° 0 mm 1 mps 682 mmHg 45%
    22:00 +12°C° 0 mm 1 mps 682 mmHg 47%
    23:00 +11°C° 0 mm 1 mps 682 mmHg 49%
    Show more